Theta_e
319 319 318 317 317 315 315 317 318 318 318 319 319 319 319 321 324 325 325 324 323 322 321 319 317 319 321 320 319 320 321 322 324 324 323 322 321 320 319 317 318 320 319 320 322 324 325 326 326 327 327 327 328 329 328 329 329 330 329 329 330 330 330 330 330 330 330 330 330 330 330 331 330 329 327 325 325 326 326 327 327 327 327 327 327
318 319 319 318 317 315 315 316 317 317 317 318 319 318 318 319 322 324 325 324 322 321 319 317 317 319 320 319 319 321 321 322 324 323 322 321 321 318 317 316 316 317 318 319 321 323 324 325 325 326 326 327 327 327 327 328 328 328 328 328 329 330 330 330 330 330 330 329 328 329 330 330 330 330 329 328 327 326 326 325 326 326 325 325 326
319 319 320 320 318 316 315 316 317 317 317 317 317 318 318 318 319 321 323 324 322 319 316 315 317 317 317 317 318 320 322 323 323 322 321 321 319 318 318 318 317 317 318 319 321 323 323 323 323 323 323 324 325 324 325 326 327 327 327 327 328 328 328 328 329 329 329 328 327 330 331 331 331 330 330 330 329 328 328 327 327 326 327 327 327
321 320 320 320 320 318 317 316 316 316 316 317 317 317 317 318 318 319 321 322 320 317 315 315 316 316 315 317 317 318 320 321 320 319 320 319 318 318 317 316 317 318 318 319 321 322 322 321 321 321 321 321 321 321 321 322 324 325 326 327 327 327 327 327 327 328 329 329 329 330 330 331 332 331 330 330 328 328 328 327 328 327 328 328 328
322 320 320 321 321 320 318 317 316 316 316 316 316 317 317 317 318 318 319 320 317 315 314 314 316 315 315 317 317 317 318 318 317 317 318 318 318 317 314 313 316 318 318 320 321 321 321 321 321 321 320 320 320 320 319 319 320 321 324 327 327 327 327 327 327 327 328 328 329 329 329 331 332 330 330 330 329 328 328 327 327 327 328 328 328
322 321 320 321 322 321 319 317 316 316 316 316 316 316 316 316 317 318 318 317 315 314 314 314 315 313 314 317 317 318 318 318 316 315 315 317 317 315 312 313 317 317 318 319 319 320 319 320 319 319 319 319 319 319 319 319 318 318 320 323 325 326 326 326 326 326 327 326 326 328 329 330 331 330 331 332 331 328 328 328 328 327 328 327 328
321 321 320 320 321 321 320 318 317 317 316 316 316 316 316 316 316 317 316 315 314 314 313 313 313 313 312 313 313 313 314 313 312 311 312 315 316 313 310 313 316 316 317 317 317 318 317 317 318 318 318 317 317 317 317 317 317 317 317 318 320 321 323 324 324 324 325 325 325 326 327 327 328 329 330 332 332 330 329 329 328 328 328 327 328
321 321 319 319 321 321 321 319 318 317 316 316 316 316 316 315 315 316 315 314 313 313 313 312 312 312 312 312 311 310 309 308 309 311 312 314 316 313 310 312 313 314 315 316 316 315 314 314 315 314 314 313 313 313 313 313 313 313 313 314 315 316 318 320 321 321 322 322 322 324 324 325 326 327 328 329 330 331 330 329 329 328 327 327 327
318 320 320 320 321 321 321 320 318 317 316 316 315 316 315 314 314 315 315 314 313 313 313 312 311 312 312 312 312 311 309 308 309 311 313 314 316 313 310 310 311 312 312 313 312 310 308 308 309 308 308 308 309 309 308 308 308 308 308 308 309 310 311 313 316 318 319 319 320 321 322 323 325 325 325 326 327 328 329 328 328 328 327 328 327
312 315 319 320 320 321 320 320 318 316 316 316 315 315 315 314 313 315 315 314 313 313 313 313 312 312 312 312 312 312 310 308 309 312 314 315 316 313 310 310 311 311 310 309 308 306 306 306 306 306 307 307 308 307 307 307 307 306 306 306 306 306 307 308 310 313 314 315 317 318 319 320 322 322 322 323 324 326 326 326 326 326 326 327 326
308 310 315 319 320 320 319 319 318 316 315 315 315 315 314 313 312 314 315 314 314 314 314 313 313 313 312 312 312 312 311 309 309 311 313 314 315 314 311 310 310 310 309 308 307 307 308 308 308 309 308 308 307 307 307 307 307 307 307 307 306 307 307 306 307 307 309 311 312 314 316 317 318 319 319 320 321 322 323 323 324 324 324 324 325
308 309 314 318 319 319 319 319 318 316 315 315 315 315 314 313 312 313 314 314 314 314 314 315 314 314 313 312 312 312 311 311 310 309 310 311 312 313 312 310 311 311 310 309 309 309 310 311 311 310 310 309 307 306 307 307 307 308 308 308 308 307 308 307 307 306 307 308 309 310 312 313 314 315 316 317 318 319 320 321 322 321 321 322 323
310 311 315 317 319 320 320 320 319 317 316 316 315 315 314 313 312 312 313 313 314 315 315 315 315 314 314 313 312 311 311 311 311 310 309 308 309 310 311 310 310 310 310 310 309 310 311 312 313 312 311 310 308 306 306 306 307 308 308 309 308 308 308 308 308 307 307 307 308 308 309 310 310 310 311 313 315 316 317 318 319 319 320 321 321
311 313 315 317 318 320 320 320 319 317 317 316 316 315 314 312 312 312 313 313 314 316 316 316 316 314 314 314 312 311 312 311 311 311 311 309 308 307 307 308 308 308 308 308 308 310 311 312 313 313 312 310 308 306 305 305 306 308 308 308 308 308 308 307 307 307 307 307 307 308 308 308 308 308 309 310 311 313 315 316 316 317 317 319 319
311 313 316 317 319 320 320 319 319 318 317 316 316 315 314 313 312 313 314 314 314 316 316 316 317 316 315 314 313 312 312 312 311 311 311 312 310 308 307 306 306 307 307 308 308 310 311 312 313 313 313 311 308 306 305 305 305 307 308 308 307 307 307 307 307 307 307 306 306 307 307 307 307 307 308 308 309 310 311 312 313 314 314 315 317
311 312 315 317 320 320 319 319 318 318 317 316 315 315 315 314 312 312 313 314 314 315 317 317 316 317 316 315 315 314 313 313 312 311 311 312 313 312 310 307 306 306 307 308 309 310 311 312 314 314 313 311 308 306 306 306 305 306 307 307 307 307 307 307 307 307 307 306 306 306 306 307 306 306 307 307 307 308 308 309 310 312 312 313 314
310 311 313 315 318 319 319 319 318 318 317 316 315 315 315 315 313 312 312 312 314 314 316 316 316 316 316 316 316 316 315 314 313 312 311 311 313 313 313 311 309 307 307 309 310 311 312 313 314 314 313 310 307 306 306 306 306 307 307 307 307 307 307 307 307 307 307 307 307 306 306 306 306 306 306 306 307 307 307 308 308 310 311 311 311
310 311 312 314 317 318 319 319 318 317 317 316 315 315 315 315 314 313 312 312 313 313 314 315 315 316 317 317 317 317 316 314 314 312 311 311 312 313 314 313 311 309 308 308 310 311 312 313 314 313 312 310 307 306 306 306 307 307 307 307 306 307 307 307 307 306 306 306 306 306 306 306 306 306 306 306 306 306 307 307 307 308 309 310 311
309 310 311 313 315 317 317 318 317 316 316 316 315 315 315 315 314 314 314 313 312 313 313 315 315 315 316 316 317 318 316 314 313 312 311 312 312 313 314 314 314 312 309 309 310 311 312 313 314 313 312 309 306 306 307 307 307 307 307 307 305 306 307 307 306 306 306 306 306 306 306 306 305 305 305 306 306 306 306 306 307 307 307 308 309
309 309 309 310 312 314 315 316 317 316 316 316 316 316 315 315 315 315 314 314 313 313 313 314 314 315 315 316 316 317 316 314 313 312 312 313 313 313 314 314 315 314 311 310 310 311 312 313 313 313 311 308 306 306 307 307 307 307 307 307 305 305 307 306 306 306 305 305 305 305 305 305 305 305 305 305 305 305 305 305 306 306 306 306 307
308 308 308 310 311 311 312 313 314 316 317 317 316 316 315 315 315 315 315 315 315 314 314 314 314 314 314 314 315 316 316 315 314 313 313 314 315 314 314 314 315 314 313 312 311 312 312 312 313 312 310 308 306 307 307 307 307 307 306 306 305 305 306 306 305 305 305 304 304 304 304 304 304 305 305 305 305 305 304 305 305 305 305 306 306
307 307 308 309 310 310 310 310 311 312 314 316 317 317 317 317 316 316 316 316 316 316 316 315 315 315 314 314 314 314 315 315 315 315 314 315 316 315 315 315 315 315 313 313 313 312 312 312 312 311 310 307 307 307 307 307 307 306 305 305 305 305 305 305 305 304 304 304 303 303 303 303 303 304 304 304 304 304 304 304 304 304 304 305 304
307 307 308 308 309 309 309 309 309 310 310 311 313 315 317 317 318 318 318 318 317 317 317 317 317 316 316 316 315 315 315 315 315 316 316 316 316 316 315 315 315 315 314 313 313 313 313 312 312 311 309 307 307 307 307 307 307 306 306 305 304 305 305 304 304 304 303 303 303 303 302 302 302 303 303 304 304 304 304 304 304 304 304 304 304
307 308 308 309 309 309 309 309 308 309 309 309 309 310 310 312 313 316 317 319 319 319 318 318 318 318 318 317 317 317 317 316 317 317 317 317 316 316 315 315 315 315 314 314 313 313 313 312 312 311 309 307 307 307 307 307 306 306 305 305 304 304 304 304 303 303 302 302 302 302 302 301 301 301 302 302 303 304 304 304 304 304 304 303 303
308 308 308 309 309 309 309 309 308 309 308 309 309 308 308 307 307 307 309 313 316 319 319 319 318 319 319 319 318 318 318 317 317 317 317 317 317 316 316 315 315 315 314 314 314 314 313 312 312 311 309 307 307 307 307 307 306 305 304 304 304 303 303 302 302 302 302 301 301 301 301 301 301 301 301 301 302 302 302 303 303 304 303 303 303
308 308 308 308 309 309 309 309 308 308 308 308 308 308 308 308 307 306 306 306 308 313 317 319 319 319 319 320 319 319 319 318 318 318 318 318 317 317 316 316 315 314 314 314 314 314 313 313 312 311 309 307 307 307 307 306 305 304 303 303 302 302 302 301 301 301 300 300 300 300 300 301 301 301 301 301 301 301 301 301 302 302 303 303 303
307 307 308 308 308 309 309 309 309 308 308 308 308 308 308 308 308 307 306 305 303 304 309 314 318 320 320 320 320 320 320 319 319 319 318 318 318 317 316 315 314 313 313 313 314 313 313 313 312 311 309 307 307 307 307 306 304 303 303 302 302 301 301 300 299 298 298 298 298 299 299 299 300 300 300 301 301 301 301 301 301 301 302 302 302
306 306 307 307 307 308 309 309 308 308 308 308 307 308 307 307 307 306 305 304 303 303 304 306 312 317 319 320 320 320 320 320 320 319 318 317 317 316 315 313 313 313 313 313 313 313 313 312 312 310 308 307 307 307 306 305 304 303 302 302 301 300 299 297 296 295 295 295 296 296 297 297 298 298 298 299 300 300 300 300 301 301 301 301 301
305 305 305 306 306 306 308 308 307 307 308 307 307 307 306 306 306 305 304 304 303 303 304 304 306 310 314 316 317 318 319 320 320 319 319 318 315 314 314 313 314 314 314 313 313 313 313 312 310 309 308 308 307 307 306 304 303 302 302 301 299 297 296 296 296 295 295 295 295 295 295 294 294 294 294 295 296 297 298 299 300 300 300 300 300
304 304 305 305 305 306 307 307 307 307 307 307 307 306 306 306 305 304 304 303 302 303 304 304 305 306 308 309 311 313 315 318 319 319 319 319 316 315 315 314 314 314 314 313 313 313 313 312 310 309 308 308 307 306 305 303 302 302 301 298 296 295 295 295 295 295 295 295 295 295 295 294 293 293 293 293 293 294 294 295 297 298 299 299 300
304 304 304 304 305 306 306 306 306 306 306 306 306 306 305 305 305 305 304 304 303 303 304 304 305 305 305 306 307 309 311 314 317 318 319 319 317 316 316 314 313 313 313 313 313 313 313 311 310 309 308 307 306 305 304 303 302 300 298 296 295 295 295 295 295 295 295 295 295 295 295 295 294 294 295 295 294 294 294 294 294 294 295 296 298
303 304 304 304 304 306 306 306 306 306 305 306 305 305 305 305 305 304 304 304 304 304 305 305 306 306 306 306 307 307 309 311 314 316 317 317 317 316 315 314 313 313 313 312 312 313 312 311 310 309 307 306 305 304 303 301 299 297 295 295 295 295 294 295 295 294 294 295 295 295 295 296 295 295 294 295 295 295 295 295 294 294 294 294 295
304 304 304 304 305 305 306 306 305 305 305 305 305 304 304 304 304 304 304 304 305 305 305 306 306 307 307 306 306 307 308 310 312 314 315 316 315 315 314 314 313 312 312 312 312 311 311 310 309 307 306 305 304 302 301 298 296 294 294 294 294 294 294 294 294 294 294 294 295 295 295 295 295 295 294 295 296 296 296 295 295 295 295 294 294
305 304 304 305 305 305 305 305 304 304 304 304 304 304 303 303 303 303 304 304 305 305 306 306 306 306 306 307 307 308 309 310 311 312 314 314 314 314 314 314 313 312 311 311 311 310 310 309 308 307 306 304 302 300 297 295 294 294 294 293 293 292 292 293 293 293 293 294 294 294 294 295 295 295 295 295 295 295 295 295 295 295 295 295 295
304 304 304 305 305 305 305 305 304 304 304 304 303 303 303 303 303 303 304 305 305 305 306 306 306 306 306 307 308 308 309 310 311 311 312 313 313 314 314 314 312 311 311 311 310 309 309 308 307 306 305 302 300 297 294 294 294 294 293 292 292 292 292 292 292 292 293 293 293 293 294 294 294 294 294 294 294 294 294 294 294 294 295 295 295
303 304 305 305 304 304 304 304 304 303 303 304 304 303 303 303 303 304 304 305 305 305 306 306 306 306 307 307 308 309 309 310 310 311 311 312 313 313 313 313 312 310 310 309 309 309 309 308 306 305 303 300 296 294 294 295 294 293 292 292 292 292 292 292 292 292 292 293 293 293 293 293 293 293 293 293 292 292 292 292 293 293 294 294 294
303 303 304 304 303 303 303 303 303 303 303 303 303 302 302 303 303 304 305 305 305 305 306 306 306 307 307 307 308 308 309 310 310 310 311 312 312 312 313 312 311 309 308 308 308 308 307 306 304 303 300 297 295 294 295 295 294 293 292 292 292 292 292 292 292 292 292 292 292 292 292 292 293 293 293 292 291 291 291 292 292 292 292 293 293
303 303 303 303 303 302 302 302 303 303 303 303 302 302 302 303 304 304 305 305 305 306 306 306 306 307 307 307 307 308 308 309 310 310 310 311 311 312 312 311 310 308 307 306 306 305 304 304 303 300 298 296 295 295 295 295 294 293 292 292 292 292 292 292 293 293 293 293 292 292 291 292 292 292 292 291 291 290 290 291 291 291 291 291 292
302 303 303 303 302 302 302 302 302 303 303 303 302 302 302 303 304 304 305 305 306 306 306 306 306 306 307 307 307 307 308 308 309 310 310 311 311 311 310 309 308 306 305 304 304 304 303 302 301 298 296 296 296 296 295 294 293 292 292 292 292 292 292 293 293 293 293 293 293 292 292 291 291 291 291 290 290 289 290 290 290 290 290 290 291
302 302 301 301 301 301 302 302 303 303 303 302 302 302 302 303 304 304 305 305 306 306 306 306 306 306 307 307 307 307 307 307 308 309 310 310 310 309 308 307 305 304 302 301 303 303 302 300 298 296 296 296 296 296 295 294 293 293 292 292 292 292 292 292 292 293 292 292 292 292 292 292 291 290 290 289 289 289 289 289 290 290 290 290 290
301 301 300 301 301 301 301 302 302 302 302 302 302 302 303 303 304 304 305 305 305 305 305 306 306 306 306 306 306 307 307 307 308 309 309 309 309 308 307 305 303 302 301 301 301 301 300 298 297 296 296 296 296 295 294 293 293 293 292 291 291 292 292 292 292 292 292 292 292 292 292 291 290 290 289 289 289 288 288 288 288 289 289 289 289
301 300 300 300 301 301 301 301 301 302 302 301 302 302 303 303 304 304 305 305 305 305 305 306 306 306 306 306 306 306 306 307 307 308 307 307 306 306 304 303 302 302 301 300 299 298 298 297 297 297 297 296 295 294 293 293 292 292 291 291 291 291 291 291 292 292 292 292 292 291 291 291 290 289 289 288 288 287 287 287 288 288 288 288 288
301 300 300 300 301 301 301 301 301 301 301 301 302 302 303 303 303 304 304 305 305 305 305 306 306 306 306 305 305 305 306 306 307 307 306 305 304 303 303 302 302 300 298 297 297 297 297 297 297 297 296 295 294 293 292 292 292 291 291 290 290 290 290 290 291 291 291 291 291 291 290 290 289 288 287 287 287 287 287 287 288 288 288 287 288
301 301 300 300 301 301 301 301 301 301 301 301 302 302 303 303 303 304 304 304 305 305 305 305 305 305 305 304 304 305 306 306 305 304 304 303 302 302 301 300 299 298 297 297 297 297 297 297 296 295 294 293 293 292 292 292 291 291 290 290 290 290 290 290 290 290 291 290 290 290 289 288 288 287 287 287 287 287 287 288 288 288 287 288 288
301 301 300 300 300 301 301 301 301 301 302 302 302 302 303 303 304 304 304 305 305 305 304 304 304 304 304 304 304 304 304 304 304 303 302 301 300 299 298 297 297 296 296 297 297 297 296 295 294 294 293 293 292 292 291 291 290 290 290 290 290 290 290 290 289 289 290 289 289 288 288 287 287 287 287 287 288 288 288 288 288 288 288 288 288
301 301 300 300 301 301 301 301 302 302 302 302 302 303 303 304 304 304 304 304 304 304 304 303 303 303 304 304 303 303 302 302 301 301 300 299 298 297 296 296 295 295 296 296 296 295 294 293 293 293 292 292 292 292 292 291 291 291 291 291 291 291 290 290 289 289 289 288 288 288 288 287 288 287 287 288 288 288 288 288 288 288 288 289 289
301 301 300 300 300 301 301 302 302 302 302 302 302 303 303 303 303 303 303 303 303 302 303 303 303 303 303 302 301 300 299 299 298 298 297 297 296 296 296 295 295 295 296 295 294 294 293 293 293 293 292 292 292 292 292 292 292 292 292 291 291 291 290 290 289 289 289 288 288 288 288 288 288 288 288 288 288 288 288 289 289 289 289 289 289
300 300 300 300 300 301 301 301 302 302 302 302 303 303 302 301 301 301 301 302 302 302 302 302 302 301 300 299 298 298 297 297 297 296 295 295 295 295 295 296 296 295 294 294 293 293 293 294 293 293 293 293 293 293 292 292 292 291 291 291 291 290 290 289 289 288 287 287 288 288 288 288 288 288 288 289 289 289 289 289 289 289 289 290 290
300 300 300 300 300 300 301 301 302 302 302 302 302 301 300 299 300 300 301 301 301 301 301 300 299 298 298 297 297 296 296 295 295 295 295 295 296 296 296 296 295 294 293 292 292 292 293 293 293 293 293 293 293 292 292 291 291 290 290 289 289 289 288 288 287 286 286 287 288 288 288 288 288 288 288 289 289 289 289 289 289 289 289 289 289
300 300 300 300 300 300 301 301 302 302 302 302 301 299 298 298 299 299 299 299 299 298 298 298 297 297 297 296 296 296 296 295 296 296 296 295 295 295 295 294 293 293 293 293 293 293 293 293 293 293 292 292 292 292 291 291 291 290 290 289 288 287 287 286 286 286 286 287 288 288 288 288 288 288 288 288 288 288 288 288 288 288 288 289 289
299 299 300 300 300 300 301 301 301 302 302 301 299 298 298 298 298 298 298 298 297 297 297 297 296 296 296 296 296 296 296 296 296 296 295 294 293 293 293 293 293 293 293 293 293 293 293 293 293 292 292 291 291 291 291 291 291 290 290 289 288 287 287 286 286 286 287 287 288 288 288 288 288 288 288 288 288 288 288 288 288 288 288 288 289
Wind_Speed
5 6 10 16 17 17 18 19 21 21 21 21 21 20 19 19 19 20 20 19 18 17 16 13 11 10 9 8 7 7 8 7 6 5 5 4 3 3 3 4 3 4 5 6 7 7 6 7 6 4 3 3 3 3 4 3 4 7 9 10 11 12 12 11 9 7 6 9 12 13 12 10 9 9 10 11 14 16 17 19 20 20 19 18 18
5 7 9 14 16 17 19 19 22 22 22 22 21 21 20 19 20 21 21 20 19 17 15 13 12 12 11 10 9 10 9 8 7 6 5 4 3 3 4 5 5 6 7 7 8 8 9 10 10 8 7 6 6 5 5 3 4 5 5 5 7 11 11 10 9 8 7 9 8 5 7 8 8 9 9 11 12 13 15 17 19 20 20 19 19
8 8 9 13 16 18 19 20 23 24 24 24 22 22 21 21 21 21 22 22 19 16 13 12 11 11 10 10 10 10 10 8 7 6 5 4 3 4 4 5 6 7 8 8 9 10 11 13 13 12 11 10 10 11 10 8 7 6 6 6 6 8 7 6 8 8 8 8 6 2 1 2 4 6 6 8 9 11 13 15 16 18 17 16 17
10 10 9 11 14 18 20 22 24 24 24 25 24 24 23 23 23 23 23 22 20 17 14 12 12 10 9 9 9 9 9 8 6 6 6 5 4 3 3 4 6 7 8 9 10 10 11 12 12 11 11 11 11 13 13 12 10 9 7 6 7 8 7 4 5 7 8 8 4 1 1 1 2 2 2 4 5 5 7 9 11 12 13 13 14
11 11 11 12 14 18 20 23 25 25 26 28 28 27 25 25 25 24 24 23 21 19 16 14 13 12 11 10 9 8 8 8 7 8 7 6 4 3 4 6 7 8 8 9 10 9 9 9 9 9 9 9 9 10 12 13 12 10 8 6 5 7 7 6 5 4 7 9 5 2 2 1 2 1 1 3 3 1 1 1 2 3 6 8 9
11 12 12 13 15 16 18 23 26 27 29 31 30 28 27 26 26 26 25 24 22 20 18 16 15 14 13 13 11 9 9 9 9 9 8 7 5 4 5 8 8 8 9 9 9 8 7 7 6 7 8 8 9 10 11 11 11 11 10 8 7 5 6 6 6 6 5 6 5 4 3 1 1 1 1 2 1 2 1 2 1 2 1 1 3
10 11 12 13 14 15 17 22 28 30 31 32 31 29 29 28 28 27 26 25 24 22 20 18 17 16 15 15 14 12 11 11 10 9 8 7 6 5 7 8 8 7 7 7 7 6 5 5 5 6 8 8 9 11 11 10 10 10 10 9 9 6 5 6 6 5 5 5 3 1 2 1 1 1 1 2 2 2 1 2 3 1 0 2 2
10 11 13 14 15 18 20 23 29 31 31 32 32 31 31 30 29 28 27 26 25 25 23 21 19 18 17 16 15 14 12 11 10 10 9 8 7 6 7 8 8 8 7 6 6 5 6 7 7 9 10 11 11 12 12 11 9 9 9 8 8 7 7 7 6 5 4 4 4 3 2 1 1 1 2 2 2 2 2 2 3 4 5 5 2
11 12 13 14 16 19 19 20 25 28 29 32 33 33 32 30 29 29 29 28 27 27 26 23 21 19 18 18 17 16 13 11 11 12 11 10 9 8 7 8 9 9 9 8 8 9 11 12 12 12 13 13 13 12 12 11 10 9 9 8 8 8 8 7 7 7 6 5 4 4 5 4 2 2 4 4 2 3 2 2 3 6 6 3 2
11 12 11 12 13 14 14 15 21 25 28 31 32 32 32 30 30 31 30 30 29 29 28 26 23 21 20 19 19 18 15 12 12 13 12 11 10 9 9 9 9 9 10 11 11 11 12 12 12 12 12 12 12 12 12 12 11 11 11 10 9 9 9 8 7 8 7 7 6 5 5 5 3 3 4 5 4 3 3 4 5 6 5 5 6
8 9 9 11 11 12 14 16 20 23 25 28 30 32 32 32 32 33 32 32 31 31 29 27 25 24 22 20 20 19 17 14 14 15 14 13 12 11 10 10 10 10 11 10 10 10 10 9 9 10 10 11 11 12 12 12 12 12 12 12 12 12 11 10 9 8 8 8 8 7 6 5 4 3 4 5 4 4 4 5 6 6 8 9 7
7 7 8 10 11 13 16 17 18 21 24 28 31 33 33 33 33 33 34 33 33 32 31 29 27 25 24 22 21 21 19 17 16 17 16 15 14 13 12 12 12 12 11 10 10 9 8 8 7 8 8 9 10 11 11 11 11 11 12 12 13 13 12 12 12 11 10 9 9 8 6 5 4 4 3 4 5 5 6 6 7 8 9 9 9
5 4 6 8 8 11 14 16 17 20 25 28 30 32 33 33 33 34 35 35 34 34 32 31 29 27 26 24 23 22 22 19 18 18 17 16 15 15 14 14 14 14 13 12 11 9 8 7 7 6 6 7 8 9 10 11 11 11 11 11 12 12 11 12 12 12 11 10 8 7 6 5 5 4 4 4 4 5 6 7 8 9 9 10 11
4 3 4 6 6 8 11 14 15 17 21 25 28 30 31 30 31 33 34 35 35 34 33 32 31 29 27 26 24 23 23 22 20 19 18 17 16 16 16 16 16 15 15 14 12 11 9 7 7 6 5 5 6 7 8 9 10 11 11 11 11 10 10 11 11 10 11 10 9 7 7 6 5 4 4 4 4 4 5 6 8 9 10 11 11
4 0 2 4 5 7 9 11 12 14 17 21 25 28 29 29 29 30 31 32 33 33 33 33 32 31 29 27 26 25 24 23 22 20 19 18 17 17 17 16 16 15 14 14 13 12 10 8 7 6 5 5 5 6 7 7 9 10 10 10 10 9 9 9 9 8 8 8 8 7 6 6 5 5 4 4 4 4 4 5 6 7 8 8 9
6 4 2 2 5 7 7 9 10 13 16 21 25 26 28 27 27 28 29 30 32 33 34 33 33 32 30 29 28 27 26 25 24 22 20 19 18 17 17 16 16 15 14 14 14 12 11 9 8 7 6 5 5 5 6 6 7 8 9 9 8 8 7 7 7 7 7 7 6 6 6 5 5 4 4 4 4 3 4 4 5 6 6 6 6
8 6 5 3 3 6 8 9 11 12 16 21 24 26 28 27 26 27 29 30 31 32 33 33 33 32 31 30 29 28 28 27 26 24 22 20 19 18 17 17 16 15 15 15 15 14 12 10 9 8 7 5 5 5 5 6 7 7 8 7 6 6 5 5 5 5 5 5 5 5 4 4 4 3 3 3 3 3 3 3 4 5 6 6 6
8 9 8 7 5 3 5 9 11 13 15 18 21 24 26 27 28 27 27 28 29 30 31 32 32 32 32 31 30 29 29 28 27 26 23 22 21 20 19 18 17 16 16 16 16 15 13 12 10 10 8 6 6 6 5 5 6 6 7 6 5 4 4 4 4 4 4 4 3 3 3 3 3 3 3 2 2 2 2 2 4 5 6 7 8
9 10 10 9 9 7 3 4 9 11 13 14 17 19 21 25 27 26 26 26 27 27 28 29 30 31 31 31 31 30 29 29 28 27 25 24 24 23 21 20 19 17 17 17 17 16 15 14 13 11 10 7 6 7 6 5 5 5 5 4 4 4 4 3 3 2 3 3 3 3 3 3 3 3 3 3 3 2 3 3 4 5 6 8 9
8 9 10 10 12 13 9 4 5 8 9 11 13 16 19 21 23 25 25 25 26 26 26 27 28 29 29 30 30 30 30 30 29 29 28 27 26 25 24 22 20 19 18 18 18 17 16 16 15 14 12 9 8 8 7 5 5 4 4 4 3 3 3 2 2 2 2 2 3 3 3 4 4 4 4 4 4 4 4 5 5 6 7 8 10
8 8 9 10 13 16 15 13 11 7 3 7 11 13 16 18 19 21 23 24 25 26 27 27 28 28 28 28 29 30 30 30 30 31 30 29 28 27 26 24 22 21 20 20 19 18 17 17 17 16 13 11 9 9 8 6 5 4 4 3 2 2 2 1 1 1 2 3 3 4 5 5 5 5 5 6 6 5 6 6 7 7 8 8 9
8 8 8 10 12 15 17 19 19 17 11 6 2 4 7 10 12 15 18 21 23 24 26 27 28 28 28 30 31 31 31 31 31 32 32 32 31 30 29 26 24 23 21 21 21 20 19 18 18 17 15 12 11 10 9 7 6 5 4 3 3 3 2 1 1 2 3 4 5 6 6 7 6 6 6 7 7 6 6 7 7 8 9 9 10
6 6 7 9 11 13 15 17 18 18 18 17 14 11 8 3 2 6 10 14 17 20 22 24 26 27 28 30 31 32 32 32 32 32 34 34 33 32 31 29 26 25 23 23 23 22 20 20 20 18 16 14 13 11 9 8 7 6 6 4 4 4 3 2 1 1 2 4 5 6 7 8 8 8 8 8 8 7 7 8 8 8 9 10 11
6 6 6 8 10 12 14 14 15 15 17 18 18 18 18 17 13 9 4 4 10 15 17 19 22 25 27 28 30 31 32 31 31 32 33 34 33 32 32 30 28 26 25 24 24 23 22 22 21 20 18 15 14 12 10 9 8 7 6 6 5 4 4 2 1 1 3 4 5 6 7 8 8 9 9 8 8 8 8 9 9 9 9 10 11
7 7 7 8 10 11 12 12 12 13 14 15 16 17 18 20 21 19 16 11 5 5 10 14 18 21 24 26 28 29 30 29 29 30 32 33 33 31 31 30 28 27 26 26 25 25 24 24 23 21 19 16 14 12 11 9 8 7 6 6 5 4 3 2 2 3 4 5 6 7 8 8 9 9 10 9 9 10 10 10 11 11 10 10 11
7 7 7 8 8 8 10 10 10 11 12 12 13 14 14 15 17 18 18 17 14 10 4 6 12 16 20 23 26 27 28 28 29 30 31 32 31 31 31 30 28 27 26 26 27 27 27 26 25 22 19 16 14 13 12 10 9 7 6 6 5 3 2 2 4 5 6 7 8 9 9 9 10 10 11 11 11 11 12 12 12 13 13 12 13
5 5 6 6 7 8 9 10 10 11 11 11 11 12 12 13 13 15 16 18 18 16 12 7 5 10 15 18 22 25 27 28 28 29 30 30 31 32 30 27 26 25 24 25 27 29 29 27 25 22 19 17 15 14 12 11 9 8 7 6 5 3 3 4 6 7 8 9 9 9 10 10 11 11 12 12 12 12 12 13 13 13 13 14 15
4 5 6 6 6 7 8 9 10 10 10 11 11 11 13 13 13 15 17 19 19 18 16 12 7 5 9 13 17 20 22 25 26 27 26 27 28 27 24 21 20 21 22 25 28 30 29 26 25 22 19 16 15 15 13 11 10 9 8 7 5 4 4 5 6 7 8 9 9 10 11 11 11 12 13 13 14 13 13 14 14 13 14 15 16
4 5 5 6 6 6 7 8 9 10 11 11 11 12 14 15 16 17 18 18 19 18 16 14 11 8 7 9 12 14 17 19 22 24 25 25 24 22 20 20 20 20 23 26 27 28 28 27 24 22 19 18 17 16 14 12 11 10 8 7 5 4 3 3 4 6 7 9 10 12 13 14 15 15 16 17 17 18 18 17 16 15 15 17 17
4 4 4 4 5 5 7 8 9 10 10 11 11 12 14 15 16 18 18 18 19 18 17 15 14 12 11 10 10 12 13 15 18 21 23 24 24 23 23 24 24 24 25 27 29 30 31 30 28 25 23 22 21 18 15 13 11 10 8 6 4 3 2 2 3 5 8 10 12 14 16 18 19 19 18 18 19 20 21 21 21 19 18 18 19
3 3 3 3 3 3 5 7 8 9 9 10 11 12 14 14 15 15 16 17 18 18 17 16 14 14 14 13 13 12 12 13 14 17 20 23 24 25 25 25 24 24 27 29 32 34 34 33 30 27 25 24 22 18 15 13 12 10 8 5 4 2 2 3 5 7 9 11 13 15 16 17 18 18 17 17 19 20 21 22 23 23 22 22 21
3 3 3 3 3 3 4 5 6 7 8 10 12 14 14 15 15 15 16 17 17 17 16 14 14 13 13 13 14 14 14 13 13 15 19 21 22 24 25 24 25 26 29 32 35 36 35 32 30 27 25 23 20 18 16 13 11 9 7 5 3 1 2 4 6 8 11 12 14 15 15 15 16 18 18 18 18 20 20 21 22 23 24 25 25
2 3 4 4 4 4 4 5 6 6 7 9 12 14 16 17 18 18 18 18 16 15 15 14 13 13 12 13 13 14 15 14 13 14 17 19 21 22 23 25 27 28 30 34 36 36 34 32 29 27 24 22 19 17 15 12 10 9 6 4 2 2 4 5 8 10 12 13 14 14 15 15 15 17 18 17 17 17 18 20 21 22 24 25 26
2 3 4 5 5 5 6 8 9 9 10 12 14 16 18 19 20 20 19 18 16 15 14 14 15 15 15 14 13 14 15 15 14 13 14 17 20 22 24 26 28 29 31 35 36 35 33 31 29 27 24 21 19 16 14 12 11 8 5 2 1 4 6 8 10 12 13 13 14 15 15 15 16 16 16 16 16 16 17 18 19 20 21 22 23
4 4 5 6 7 8 8 9 10 11 12 13 15 16 16 16 17 17 17 18 17 15 15 15 16 18 17 16 14 14 15 15 14 13 13 16 19 22 25 26 28 29 32 36 36 35 33 31 29 26 24 21 19 16 14 12 10 7 4 2 4 7 9 10 12 14 14 14 14 15 16 16 16 16 16 16 16 16 18 19 20 21 22 22 23
4 5 7 8 9 10 12 13 14 13 13 14 16 17 16 14 15 15 16 16 16 16 16 17 18 17 17 16 15 15 15 16 15 13 13 16 18 21 25 26 27 29 32 35 36 35 34 32 29 26 24 21 18 15 13 11 8 4 2 3 6 8 10 12 13 15 15 15 15 16 16 16 16 16 16 17 18 18 19 21 22 22 23 23 23
6 7 9 12 13 14 15 16 16 16 16 17 19 20 18 15 14 15 16 15 15 16 17 17 17 16 15 15 15 15 16 16 15 14 14 16 18 21 25 27 27 29 31 33 34 34 33 31 28 25 23 21 18 15 12 8 5 2 4 6 8 9 10 13 14 15 16 16 17 19 19 17 17 17 16 17 18 18 19 21 23 24 24 24 23
8 10 12 14 15 15 16 16 16 17 19 19 21 21 18 15 14 15 16 16 15 16 17 17 16 16 16 16 16 16 16 17 17 15 15 17 17 19 24 27 27 28 29 30 31 30 28 27 25 23 21 19 16 13 8 4 2 4 7 8 9 9 11 13 14 14 15 15 17 20 19 17 17 18 18 19 19 20 21 22 23 24 25 25 23
11 12 13 15 16 17 17 17 17 18 20 20 21 22 19 16 15 16 16 16 17 18 17 17 18 18 18 18 17 18 17 17 17 17 16 17 16 17 22 25 25 25 25 26 28 27 25 23 22 20 17 14 12 9 5 2 3 5 9 10 10 10 12 14 14 15 16 16 15 16 17 17 19 20 20 21 21 21 22 23 24 25 26 26 23
12 13 15 17 17 17 17 17 18 19 21 21 22 21 18 16 17 17 17 17 19 19 19 19 20 19 18 18 18 18 18 19 19 18 16 16 17 19 22 22 22 23 23 24 26 27 25 23 20 17 13 10 7 4 2 3 4 7 10 12 12 12 13 15 16 16 17 17 16 17 17 18 20 22 22 23 23 22 23 24 25 26 27 26 23
14 15 16 16 15 16 17 18 20 21 21 22 22 20 17 17 17 17 17 19 21 22 22 22 21 20 19 19 19 18 19 20 19 17 17 17 19 21 22 23 24 25 25 25 26 25 24 21 18 15 11 7 3 1 2 4 7 9 12 15 15 14 15 17 17 17 18 19 20 20 20 20 20 21 23 24 24 25 25 26 26 27 29 28 27
16 16 17 15 14 15 17 19 21 21 21 22 21 19 17 18 18 19 21 22 23 23 23 22 21 20 20 20 20 20 20 19 16 16 17 18 19 21 23 25 28 29 29 28 25 23 21 19 16 12 8 5 2 1 3 5 8 10 12 15 16 17 19 19 18 19 21 22 22 21 21 20 21 22 24 26 28 29 29 28 29 30 31 32 32
14 15 16 14 14 14 15 17 20 20 21 21 20 18 17 18 20 22 24 23 23 23 23 22 22 22 21 21 21 20 19 16 15 16 18 19 21 23 26 30 32 33 31 27 23 21 19 17 14 11 6 3 0 2 4 6 8 11 13 15 17 20 22 20 19 20 23 23 22 21 21 22 23 26 28 30 31 31 30 29 30 32 33 34 33
14 15 16 15 14 14 15 16 18 20 20 19 18 17 17 20 23 24 24 24 24 23 23 23 23 23 22 21 19 17 15 15 16 18 20 22 25 28 30 32 32 31 28 26 22 19 17 15 12 8 4 1 2 4 5 7 9 11 14 16 19 21 23 22 20 20 22 21 21 22 23 25 28 30 31 31 31 31 29 29 30 31 32 32 31
15 16 17 16 14 13 14 15 17 20 20 19 17 16 19 22 24 24 24 24 24 24 24 24 23 22 21 18 15 13 13 17 20 22 25 27 30 32 32 31 30 28 26 25 22 18 15 13 9 6 3 2 3 5 6 8 10 13 16 19 22 23 23 21 19 19 20 21 23 24 26 27 28 29 29 28 27 26 26 27 28 29 28 27 26
16 17 19 17 14 13 14 14 16 18 19 18 17 17 20 24 24 24 25 25 24 24 23 23 22 19 16 12 11 12 15 19 23 26 30 32 32 32 30 29 28 26 23 21 19 17 14 11 8 5 3 3 4 5 6 8 10 14 17 19 21 21 19 18 19 19 20 22 23 24 25 26 25 25 25 24 23 23 23 24 25 25 23 22 22
18 19 20 17 13 14 15 15 16 17 17 17 17 18 20 23 23 23 23 23 22 23 23 22 19 13 10 13 17 20 23 25 28 30 31 30 30 30 29 27 26 25 22 20 18 15 12 9 6 5 3 3 3 4 6 8 10 12 14 16 16 17 18 18 18 18 19 21 22 22 23 23 22 22 21 21 22 22 21 21 20 19 19 19 20
19 19 18 15 14 15 16 16 16 16 15 16 18 18 17 17 18 19 20 21 22 21 18 14 10 12 17 21 25 28 30 30 31 31 29 28 28 28 27 25 24 23 22 20 17 14 11 8 6 5 3 1 2 4 6 9 12 14 15 15 14 15 16 17 17 18 20 20 20 20 19 19 19 19 19 19 19 19 19 19 19 19 20 21 22
18 17 16 15 16 16 16 16 16 16 15 16 14 11 9 9 12 14 14 12 9 8 9 13 19 23 24 26 27 28 27 28 29 29 26 24 25 24 24 23 21 19 18 19 17 15 12 10 8 6 3 1 3 4 7 11 14 16 16 15 14 15 15 15 16 18 19 19 17 17 17 17 18 18 19 19 19 19 19 19 19 20 20 21 21
18 18 17 17 17 16 16 16 16 15 14 12 6 2 4 7 7 5 1 8 16 21 22 23 25 25 25 25 26 26 26 26 27 26 24 23 23 22 22 23 21 19 18 17 15 14 12 9 6 4 3 3 3 5 9 13 15 15 15 15 15 15 14 14 16 17 17 15 15 16 16 17 18 19 19 19 20 20 20 20 20 20 20 20 21
18 17 17 17 16 15 15 15 15 15 12 5 4 6 7 9 11 12 15 20 25 28 27 25 24 24 25 25 26 27 27 26 26 26 25 25 24 23 22 22 21 19 16 14 11 9 7 5 4 3 4 4 5 8 11 14 14 14 14 15 15 14 13 14 15 15 14 13 14 15 17 18 18 19 20 20 21 21 21 21 21 21 20 20 21
Wind_Direction
180 181 196 203 204 198 197 197 194 191 190 188 187 187 185 185 186 187 187 186 186 184 181 183 179 176 175 169 163 161 165 166 157 144 128 116 101 83 71 68 66 68 70 74 89 95 93 97 102 121 150 168 169 174 187 193 188 198 210 215 223 231 232 236 240 238 239 244 253 267 271 271 283 278 257 248 249 250 252 252 253 255 256 256 254
191 191 188 196 198 196 197 197 195 194 192 190 189 188 185 185 188 190 190 189 192 191 187 188 183 178 178 175 169 165 166 166 162 154 141 134 116 91 79 73 71 73 73 80 93 97 98 97 97 98 95 102 110 112 118 119 129 156 181 198 217 224 220 223 226 219 219 223 227 264 277 268 273 275 262 255 253 252 253 253 252 253 255 257 257
207 202 187 189 191 192 196 197 197 196 193 192 191 188 186 186 189 191 193 192 193 194 193 190 180 179 184 180 174 168 167 167 165 160 151 145 122 96 81 74 77 79 78 85 98 105 104 99 96 93 91 92 92 93 94 94 100 112 134 156 178 195 194 197 207 211 211 202 199 227 265 284 275 266 256 251 253 253 251 251 251 253 255 254 255
208 205 193 188 187 190 195 196 197 196 193 193 191 187 187 189 190 191 193 192 192 193 193 189 178 178 185 182 179 173 167 166 164 159 154 146 129 101 70 78 89 90 87 90 102 109 105 101 99 94 91 90 87 86 85 85 85 87 104 125 139 153 151 147 177 199 202 188 171 194 153 122 248 259 269 253 246 251 249 249 251 254 256 255 257
210 205 196 190 192 193 194 195 195 196 195 195 192 189 189 193 193 191 192 191 191 192 191 188 180 178 177 177 179 171 162 163 161 158 156 148 133 100 69 93 106 103 100 100 103 107 103 99 97 95 92 87 86 86 84 82 83 82 89 102 116 135 135 122 120 149 191 196 188 168 158 178 219 191 303 238 197 205 264 185 230 256 257 260 263
218 211 202 197 197 193 189 192 195 197 198 197 194 191 193 197 195 192 191 190 190 192 192 190 185 182 180 178 178 174 169 172 171 164 159 153 134 99 88 106 118 113 106 105 105 105 104 99 94 94 90 86 88 90 87 83 83 82 84 92 99 108 121 115 99 99 141 177 190 210 219 182 142 146 237 227 204 281 245 129 62 40 95 263 273
223 217 209 203 198 190 189 193 196 199 199 197 194 192 195 199 196 193 192 190 190 192 193 192 188 189 190 190 192 191 187 185 179 168 160 157 145 115 101 111 123 124 117 110 106 102 100 98 95 94 89 87 87 87 86 82 81 81 80 87 93 92 98 102 91 87 105 110 106 190 219 190 234 247 247 266 288 291 243 243 281 270 342 338 319
224 219 212 205 198 194 195 194 197 201 199 196 194 193 196 199 197 195 194 191 191 193 195 193 189 191 195 199 203 203 201 192 180 173 168 164 157 138 119 115 119 123 126 121 111 102 98 100 99 97 94 91 87 84 83 83 82 81 79 80 84 83 81 83 75 63 64 62 55 47 47 48 293 326 5 327 286 268 280 289 284 287 306 314 308
237 228 218 207 201 199 195 192 197 201 198 197 196 194 197 199 198 197 196 194 193 194 196 196 193 195 198 203 207 210 211 200 185 181 178 172 166 156 141 129 121 117 118 118 114 108 103 102 99 96 92 88 85 83 81 81 80 78 78 78 79 80 77 77 74 64 56 44 31 27 29 24 7 17 22 5 317 278 284 298 320 324 319 309 309
252 242 229 215 206 198 192 188 196 201 199 198 198 195 197 199 199 199 198 196 196 195 197 199 199 200 203 208 212 213 214 206 191 186 184 180 176 168 160 150 137 128 124 121 118 114 109 105 100 95 89 83 79 79 80 80 79 77 78 80 82 82 80 82 80 72 65 56 45 34 22 12 354 347 3 358 326 290 285 287 308 321 316 314 319
266 247 225 210 199 188 186 188 194 199 198 197 198 197 198 200 201 200 200 200 199 197 199 202 203 205 207 211 216 217 217 210 198 192 189 186 184 179 175 168 156 147 142 136 132 128 121 114 105 95 88 81 78 81 85 84 82 81 81 82 81 80 80 81 80 74 68 61 56 52 43 32 20 1 350 342 320 301 298 289 289 293 293 298 304
280 243 209 191 178 173 179 183 187 191 193 196 199 198 199 202 202 201 202 202 201 200 201 204 206 209 211 212 217 220 221 216 207 203 199 194 192 188 183 179 172 165 160 156 154 149 141 131 117 101 88 80 78 84 89 89 88 87 85 84 81 79 79 79 76 70 67 62 57 56 56 52 44 27 359 335 317 307 303 292 290 294 291 288 291
296 237 196 180 169 168 175 177 178 184 190 195 198 199 200 202 202 201 202 203 203 203 203 205 208 211 214 215 216 220 223 222 217 213 210 204 200 196 190 188 184 179 176 174 170 166 159 147 133 117 99 85 80 85 89 91 94 94 91 89 85 81 80 80 77 70 66 63 59 57 57 56 49 34 15 347 323 307 298 292 293 294 289 288 291
318 227 180 173 170 168 172 173 174 180 187 192 196 200 202 204 204 203 204 204 204 205 206 207 210 213 216 218 218 220 224 226 225 222 219 215 209 205 201 199 196 191 187 183 179 174 171 164 153 141 122 99 88 88 88 88 94 98 98 95 91 88 85 84 82 75 68 64 61 61 57 53 45 29 18 5 345 320 301 300 301 294 287 287 288
356 327 147 153 159 162 168 171 173 177 182 189 196 201 203 206 207 206 206 206 207 208 209 210 212 214 218 221 222 223 225 229 231 231 228 224 219 215 212 209 207 203 195 189 184 180 179 176 169 161 145 123 106 101 96 91 93 98 100 98 95 94 93 91 87 81 74 69 66 64 60 54 42 28 19 7 356 340 314 305 304 298 293 291 290
17 21 51 108 143 154 161 167 172 175 183 192 198 202 205 207 209 209 209 209 210 211 212 213 215 216 219 222 225 227 228 231 233 235 235 233 229 224 220 217 215 211 202 193 189 187 187 185 180 174 163 142 126 119 110 101 98 98 99 98 96 94 94 94 88 82 78 75 71 66 62 57 44 32 25 12 358 341 321 306 297 292 291 294 296
22 27 30 42 108 146 156 166 174 179 186 195 200 203 206 208 211 213 213 213 215 215 215 216 217 218 220 223 227 230 231 232 234 237 240 240 237 232 228 224 221 217 207 198 195 193 192 192 188 181 173 157 141 136 124 109 105 103 102 101 97 94 93 89 83 77 73 69 67 62 55 51 42 31 25 17 5 342 319 298 286 279 276 281 288
26 36 39 38 47 99 150 166 177 186 191 196 203 206 208 211 213 215 216 217 218 219 219 219 220 220 221 223 227 231 233 235 236 239 242 244 242 237 234 230 226 221 211 203 199 196 196 197 194 187 181 172 157 152 144 123 112 110 109 110 106 100 97 90 76 66 60 52 48 43 31 28 23 12 2 354 346 336 311 279 269 267 266 269 277
28 36 39 40 39 39 53 159 173 186 195 199 207 211 213 215 216 218 221 223 224 225 225 224 225 225 225 226 229 232 234 236 237 239 242 245 245 243 240 236 231 225 216 208 201 198 198 197 196 192 187 181 173 169 164 145 131 123 118 118 115 113 114 110 91 62 45 32 21 11 1 355 349 341 336 330 321 313 306 288 268 261 260 261 266
22 32 39 43 44 44 40 61 138 170 196 205 210 213 216 219 219 222 226 228 229 231 232 232 231 231 231 231 231 233 234 236 238 241 244 246 248 247 245 242 237 229 221 214 207 203 201 198 195 193 191 188 182 180 177 167 154 144 135 132 126 120 120 114 100 74 46 24 6 353 342 335 326 314 309 312 308 300 298 295 286 274 266 261 260
18 23 33 40 42 45 46 46 59 78 149 205 209 213 217 218 219 224 229 231 233 235 236 237 238 238 237 236 236 235 235 236 238 242 245 248 250 250 248 246 241 234 225 219 213 208 205 201 196 193 193 191 187 185 184 177 169 164 158 156 150 134 126 103 70 48 27 12 356 345 337 330 320 306 297 296 294 290 288 285 284 281 276 272 269
23 21 30 40 39 41 45 48 51 54 53 60 120 205 220 220 222 228 231 234 237 240 240 241 242 242 241 240 240 239 238 239 240 241 244 247 248 249 250 247 243 236 228 222 217 212 208 202 197 194 192 189 188 188 186 179 174 172 167 164 157 148 142 121 64 13 358 352 344 337 332 328 320 307 297 292 289 286 282 279 278 278 278 277 276
32 29 35 42 41 42 44 47 49 49 49 50 52 54 56 58 232 238 239 241 246 246 246 246 245 245 246 245 245 244 243 243 243 243 244 246 246 247 248 248 245 239 231 224 220 215 209 204 199 195 192 189 189 189 184 176 170 166 164 165 162 157 157 157 146 331 327 329 328 325 323 322 319 312 303 296 290 283 280 280 277 274 275 276 275
42 41 44 46 47 47 45 44 43 43 45 46 47 50 52 52 52 48 24 292 263 257 256 254 251 251 252 251 250 250 248 246 247 247 248 249 248 247 247 247 245 240 232 225 220 215 209 204 200 197 193 191 190 187 181 176 173 169 165 166 167 166 165 171 206 278 301 308 310 311 312 312 311 307 304 300 294 289 285 282 279 275 272 274 275
41 37 39 44 47 48 48 46 45 42 41 41 42 43 45 46 47 46 45 39 15 293 270 263 259 258 257 256 256 254 252 251 251 251 252 253 252 250 249 247 244 240 233 225 218 212 209 206 203 200 196 194 192 187 181 179 181 181 176 175 175 178 186 219 274 297 305 307 306 304 303 304 301 299 298 297 295 292 290 284 280 278 274 272 274
39 34 33 37 41 46 48 47 47 46 42 39 38 37 37 38 37 38 39 40 40 35 359 284 269 266 264 263 263 261 259 258 257 257 257 256 256 255 253 250 246 239 230 223 218 212 209 207 204 202 199 196 192 186 182 184 188 190 189 190 191 199 233 281 303 310 310 309 308 305 301 298 294 291 289 289 289 288 287 283 280 278 277 275 273
44 38 34 33 32 33 34 35 36 38 38 36 34 32 28 26 25 25 25 26 29 32 31 16 309 277 271 270 269 269 268 267 266 265 261 258 258 257 254 249 243 234 226 222 219 214 209 206 203 201 201 200 193 188 188 191 193 195 195 197 203 221 264 294 306 311 313 313 311 307 303 298 292 289 285 284 284 282 280 279 278 277 277 276 274
51 45 35 30 28 23 20 20 20 22 24 25 25 21 17 14 12 11 12 14 15 18 21 21 8 307 277 275 276 277 276 274 272 269 265 261 257 253 249 244 239 237 234 225 218 212 207 204 203 201 199 199 195 192 194 196 198 201 200 198 206 227 261 291 304 310 314 316 313 309 305 299 292 288 284 280 278 277 277 277 275 273 274 274 273
50 42 32 25 21 15 10 8 8 9 10 11 11 9 6 3 2 1 2 3 4 5 6 5 2 348 316 295 288 286 284 281 277 273 270 266 258 249 247 245 242 245 240 224 214 212 208 203 202 201 201 202 200 198 200 202 203 202 198 199 211 231 253 279 299 308 311 312 311 307 305 305 302 295 289 281 274 270 269 270 270 270 270 270 269
54 41 33 22 12 7 4 1 1 2 2 0 359 357 354 352 352 353 353 353 354 355 355 353 351 345 337 325 311 300 294 287 280 274 271 269 262 257 257 253 246 241 233 219 211 211 209 205 203 204 205 204 201 201 202 204 204 200 196 200 208 217 246 285 303 308 307 306 306 303 301 304 305 302 295 289 281 274 268 265 264 264 265 266 267
53 41 31 20 8 2 358 356 354 352 351 349 347 345 344 343 343 343 342 344 345 345 344 343 341 337 335 329 320 311 300 288 278 270 265 262 260 259 258 255 247 238 229 218 210 207 206 206 206 205 202 197 195 197 198 198 197 196 195 192 192 207 274 304 309 309 305 302 302 299 296 296 297 296 294 289 285 282 276 270 266 262 260 259 260
34 22 13 8 360 354 348 342 338 338 340 342 341 338 336 336 335 333 333 334 336 336 334 332 329 329 328 324 316 310 302 290 276 267 262 256 252 251 251 248 243 236 228 217 209 205 204 204 204 201 196 192 192 193 191 189 187 189 192 186 182 228 298 308 310 309 306 304 301 298 295 290 289 293 295 289 282 280 280 277 274 270 266 260 256
14 1 353 346 342 334 327 323 322 326 330 333 334 332 330 330 329 328 327 327 326 325 323 321 319 317 315 314 310 303 297 290 278 265 258 252 246 242 242 242 239 233 224 213 207 204 201 198 196 194 191 190 190 187 183 180 177 182 189 186 185 303 313 314 314 312 310 306 302 299 296 291 288 293 294 288 280 279 278 278 278 276 272 267 262
349 347 337 329 323 315 315 318 319 321 323 326 328 326 325 325 325 323 322 320 317 314 313 312 311 309 305 304 301 295 292 291 284 267 251 244 239 237 239 240 237 229 217 208 204 200 196 193 191 190 188 187 185 179 174 173 173 179 190 196 292 322 327 323 322 322 317 309 303 298 294 290 289 288 286 282 280 282 282 281 280 277 273 271 268
339 338 330 323 318 315 313 312 313 314 314 316 319 320 319 318 318 316 314 312 310 307 305 303 302 301 300 299 297 294 292 292 287 272 250 238 235 235 237 237 233 224 213 206 201 197 193 190 188 187 184 180 175 171 171 174 176 183 204 263 324 330 333 330 328 328 323 313 306 300 293 290 289 286 284 283 283 286 287 285 282 278 275 272 268
329 324 319 315 312 311 309 309 310 310 308 308 313 316 315 312 310 308 304 303 302 299 296 294 292 293 295 297 297 295 293 291 288 275 256 242 235 233 234 233 227 219 210 204 200 195 190 187 184 183 177 170 168 171 176 179 182 196 250 319 333 333 333 332 330 328 323 315 309 303 295 288 287 285 283 282 283 286 288 287 283 280 278 275 270
303 301 302 304 306 307 306 307 307 304 304 308 313 316 314 309 307 304 299 295 291 288 287 286 286 287 289 291 292 291 290 289 284 275 261 248 237 231 232 230 221 213 207 201 196 190 186 183 179 174 170 165 167 175 180 181 192 248 316 335 336 332 330 329 326 322 318 311 307 307 302 290 284 283 281 279 281 284 286 286 284 283 280 277 274
296 299 299 299 302 303 303 303 299 298 302 308 311 313 310 304 300 297 293 291 285 282 283 282 283 284 284 283 284 284 284 284 280 274 264 252 241 231 228 225 218 209 202 195 188 181 176 174 170 166 168 168 168 174 181 189 236 306 334 340 335 328 325 324 320 315 312 305 301 304 303 291 283 282 280 280 281 283 285 285 284 283 281 279 277
297 298 296 295 297 298 298 295 290 290 299 306 309 309 306 299 295 292 289 286 281 281 282 281 281 281 279 278 278 278 278 278 275 270 261 250 240 227 221 218 211 200 191 183 177 170 164 164 164 164 170 172 168 170 185 233 285 323 340 340 331 324 320 318 314 311 310 305 298 297 295 290 288 287 286 286 285 285 284 283 282 282 280 277 278
297 297 296 296 295 293 291 289 287 289 298 304 306 305 300 293 292 290 286 282 281 283 284 282 280 278 275 274 274 273 274 274 272 267 256 244 233 222 214 205 194 184 175 168 165 161 158 158 161 165 171 172 166 170 213 286 308 328 337 336 330 323 318 316 313 310 310 307 302 299 296 293 290 288 288 289 288 286 284 282 280 278 275 276 279
286 290 294 291 286 285 284 284 288 293 297 301 303 301 294 291 290 286 281 280 282 285 286 284 281 279 277 275 273 270 271 272 268 259 246 236 226 214 201 187 175 167 159 153 153 152 152 153 159 167 170 166 164 188 285 320 327 330 331 332 329 322 318 315 311 308 307 305 303 300 296 293 289 285 285 287 286 284 282 280 277 273 272 275 278
277 284 287 281 275 277 278 282 290 294 294 297 298 293 289 290 288 282 281 281 282 283 284 282 281 279 277 277 276 274 271 268 259 245 233 221 209 197 184 171 162 153 147 145 147 148 150 154 159 164 162 158 171 301 336 339 335 329 325 326 324 321 319 315 308 304 305 303 299 297 294 292 288 286 286 287 286 285 283 280 276 275 274 275 276
270 275 280 276 270 269 269 276 286 289 289 291 289 284 283 285 282 281 282 282 280 279 279 279 278 277 275 276 276 272 266 255 240 225 211 195 183 174 165 158 153 146 142 142 145 149 153 155 156 157 155 154 156 348 349 340 330 324 320 320 319 318 318 313 303 300 301 299 296 294 292 290 289 288 289 290 289 288 285 280 277 276 276 276 274
267 270 277 275 269 268 271 278 283 286 287 287 283 279 280 280 279 280 282 280 277 277 278 278 276 274 275 274 269 260 246 228 212 198 186 174 165 158 152 149 146 142 140 142 145 148 150 148 145 144 140 110 5 347 339 331 324 317 315 314 314 313 313 310 302 296 296 294 292 291 291 291 292 292 293 292 291 288 283 279 277 276 276 275 272
274 276 281 279 271 269 273 277 282 286 288 287 283 281 281 280 279 280 280 278 276 277 276 275 273 273 273 267 251 232 213 199 188 177 165 157 150 146 144 142 141 140 140 141 142 142 139 135 128 123 111 53 358 342 334 328 321 316 314 315 316 317 316 312 303 296 295 294 293 293 295 295 295 295 294 292 290 286 283 280 279 278 276 272 268
281 283 288 289 284 281 280 277 281 287 290 291 290 286 283 282 282 282 280 277 275 273 271 269 269 268 261 238 204 182 173 168 163 156 149 145 143 142 140 139 138 137 134 134 134 132 129 124 118 111 86 33 8 351 337 329 325 322 319 319 322 322 318 312 306 302 301 300 298 299 299 297 295 295 293 291 289 287 286 285 283 281 276 271 266
283 285 291 293 291 289 286 282 284 289 293 295 295 291 287 285 285 283 280 277 273 268 265 263 260 248 211 174 155 145 141 139 138 138 139 139 141 141 139 138 136 132 130 130 130 128 127 125 119 110 91 49 11 349 338 334 332 327 323 322 323 321 317 313 310 308 307 305 302 301 299 299 299 299 297 295 294 293 291 290 288 285 279 272 267
281 284 289 291 289 286 284 282 284 289 294 298 298 295 290 288 288 285 280 276 270 263 256 244 213 166 148 144 139 135 133 132 134 137 140 143 143 141 138 137 135 132 132 133 131 128 126 125 123 120 109 60 355 350 347 339 334 330 327 326 324 322 320 316 313 312 310 307 304 303 304 305 306 305 304 302 300 298 295 293 291 287 283 277 273
284 287 289 287 284 281 279 279 282 289 296 299 299 300 303 309 306 294 281 268 246 206 164 143 135 131 130 130 130 130 131 132 134 136 139 140 139 135 132 131 131 130 129 128 127 128 128 126 127 128 118 40 2 356 347 338 333 331 331 329 325 323 320 316 314 316 315 310 306 308 310 311 311 310 309 306 304 302 299 296 292 288 284 281 278
287 289 286 283 278 274 275 277 280 287 295 296 296 343 15 8 357 343 146 133 125 119 116 116 119 121 123 125 125 126 128 126 124 126 128 127 126 126 126 126 126 126 124 121 119 123 126 126 125 122 98 62 29 358 346 341 338 335 333 332 329 327 324 321 325 327 321 313 312 314 314 314 314 313 311 308 306 305 302 300 296 292 287 284 282
288 286 283 282 278 273 274 273 274 284 288 267 143 95 67 63 71 86 103 112 113 112 111 113 116 118 121 122 121 121 122 121 122 124 125 123 121 122 124 125 125 126 128 129 130 131 133 132 127 119 105 73 33 5 353 348 343 340 339 340 340 340 338 338 339 335 323 316 317 316 315 315 315 313 311 309 308 306 304 302 301 298 293 289 285